www.pogodaiklimat.ru
ПОГОДА на Острове Бивер
Время
и дата
19:55 26.10
20:15 26.10
20:35 26.10
20:55 26.10
21:15 26.10
21:35 26.10
21:55 26.10
22:15 26.10
22:35 26.10
22:55 26.10
23:15 26.10
23:35 26.10
23:55 26.10
00:15 27.10
00:35 27.10
00:55 27.10
01:15 27.10
01:35 27.10
01:55 27.10
02:15 27.10
02:35 27.10
02:55 27.10
03:15 27.10
03:35 27.10
03:55 27.10
04:15 27.10
04:35 27.10
04:55 27.10
05:15 27.10
05:35 27.10
05:55 27.10
06:15 27.10
06:35 27.10
06:55 27.10
07:15 27.10
07:35 27.10
07:55 27.10
08:15 27.10
08:35 27.10
08:55 27.10
09:15 27.10
09:35 27.10
09:55 27.10
10:15 27.10
10:35 27.10
10:55 27.10
11:15 27.10
11:35 27.10
Ветер
(напр.,м/с)
Видим. Явления Облачность Т
(С)
Тd
(С)
f
(%)
Тe
(С)
Тes
(С)
Комфортность P
(гПа)
Po
(гПа)
Тmin
(С)
Tmax
(С)
R
(мм)
R24
(мм)
S
(см)
С 2 16 км 10/10 510 м +2.0 -1.0 80 -3 -3 1000.4
С 2
{3}
16 км 10/10 570 м +2.0 -1.1 80 -3 -3 1000.4
С 1 16 км 10/10 600 м +1.8 -1.5 79 -2 -2 1000.7
С 1
{4}
16 км 10/10 600 м +1.6 -2.0 77 -2 -2 1000.7
С 1 16 км 10/10 750 м +1.7 -2.5 74 -2 -2 1000.7
С 1 16 км 10/10 810 м +1.7 -2.7 73 -2 -2 1001.0
С 1 16 км 10/10 870 м +1.7 -3.0 71 -2 -2 1000.7
С 1 16 км 10/10 870 м +1.6 -3.2 70 -1 -1 1001.0
С 1 16 км 10/10 1500 м +1.5 -3.8 68 -2 -2 1001.4
С 1 16 км 10/10 1500 м +1.5 -4.0 67 -2 -2 1001.4
штиль 0 16 км 10/10 1350 м +1.5 -3.8 68 +1 +1 1001.4
штиль 0 16 км 8/8 1290 м +1.1 -3.9 69 0 0 1001.4
штиль 0 16 км 5/5 1500 м -0.1 -3.2 80 -1 -1 1001.0
штиль 0 16 км ясно -0.6 -2.7 86 -2 -2 1001.0
штиль 0 16 км 8/8 1110 м -1.1 -2.5 90 -2 -2 1001.4
штиль 0 16 км 10/10 1200 м -1.0 -2.4 90 -2 -2 1001.4 -1.1 +2.8
СВ 1 16 км 8/8 960 м -0.9 -2.1 92 -5 -5 1001.4
штиль 0 16 км 8/8 900 м 0.0 -2.6 83 -1 -1 1001.0
штиль 0 16 км 10/10 900 м 0.0 -2.6 83 -1 -1 1001.4
штиль 0 16 км 8/8 870 м -0.9 -2.3 90 -2 -2 1001.4
штиль 0 16 км 5/5 870 м -1.1 -2.6 90 -2 -2 1000.7
С 1 16 км ясно -1.2 -2.5 91 -5 -5 1000.7
штиль 0 16 км 5/5 1650 м 0.0 -2.2 85 -1 -1 1001.0
С 1 16 км 8/8 1650 м -0.1 -2.1 86 -4 -4 1000.4
штиль 0 16 км 5/5 1650 м +0.2 -2.6 81 -1 -1 1000.4
штиль 0 16 км ясно -1.0 -2.3 91 -2 -2 1000.4
штиль 0 16 км 5/5 1500 м -1.0 -1.9 94 -2 -2 1000.4
штиль 0 16 км 8/8 1500 м -0.9 -1.7 94 -2 -2 1000.4
штиль 0 16 км 5/5 1500 м 0.0 -1.7 88 -1 -1 1000.4
штиль 0 16 км 5/5 1230 м -1.0 -2.0 93 -2 -2 1000.0
штиль 0 16 км 8/8 1110 м -0.2 -1.4 92 -1 -1 1000.4
С 1 16 км 10/10 1080 м 0.0 -1.2 92 -4 -4 999.7
штиль 0 16 км 10/10 1080 м +0.2 -1.1 91 -1 -1 1000.0
С 1 16 км 10/10 1020 м +0.4 -1.1 90 -3 -3 999.7 -1.2 +0.4
штиль 0 16 км 10/10 960 м +0.6 -1.5 86 -1 -1 999.7
штиль 0 16 км 10/10 630 м +0.5 -1.1 89 -1 -1 999.4
СЗ 1 16 км 10/10 630 м +1.3 -2.1 78 -2 -2 999.7
штиль 0 16 км 10/10 690 м +1.5 -2.6 74 +1 +1 999.7
СЗ 1 16 км 10/10 750 м +1.5 -2.9 73 -3 -3 999.7
З 1 16 км 10/10 810 м +1.6 -3.4 69 -2 -2 999.7
З 2 16 км 10/10 780 м +1.7 -3.7 67 -3 -3 999.7
СЗ 1 16 км 10/10 900 м +1.6 -3.4 69 -1 -1 999.4
СЗ 1 16 км 10/10 840 м +2.5 -3.2 66 -1 -1 999.1
З 2 16 км 8/8 780 м +2.9 -3.6 62 -1 -1 998.7
СЗ 1 16 км 8/8 780 м +3.5 -3.9 58 0 +1 998.4
СЗ 1 16 км 8/8 780 м +2.7 -3.5 64 -1 -1 998.4
З 3 16 км 10/10 870 м +3.0 -3.8 61 -2 -2 998.4
З 1 16 км 10/10 870 м +2.5 -3.7 64 0 0 998.4
Местоположение метеостанции Beaver Island Airport: широта 45.6922 долгота -85.5664 высота над уровнем моря 204 м.
В архиве по умолчанию представлена погода на Острове Бивер за последние 1-2 суток. Обновление информации о фактической погоде в базе происходит ежечасно! Архивные данные за месяц целиком и за предыдущие месяцы Вы можете получить, выбрав интересующий диапазон дат из раскрывающегося списка и нажав кнопку "Ввод!".
Внимание! Архив погоды МЕТАР в базе сайта по станциям, не включенным в климатический монитор, хранится не более 60 дней. Нет смысла пытаться выбрать более раннюю дату.
*Определитесь, кто Вы:
Внимание! Время в таблицах - местное (без учета летнего времени). Для получения всемирного времени необходимо вычесть поправку, которая равна -5 ч.
Смотрите также архив погоды в соседних городах и на ближайших метеорологических станциях:
Партнеры нашего сайта:      
Пояснения к столбцам:
  • Ветер - указаны скорость ветра в м/с - средняя за 10 мин, порывы в срок и между сроками (в фигурных скобках) и направление, откуда дует ветер: С - северный,
  • СВ - северо-восточный, В - восточный, ЮВ - юго-восточный, Ю - южный, ЮЗ - юго-западный, З - западный, СЗ - северо-западный.
  • Видимость - горизонтальная дальность видимости в метрах или километрах. При видимости от 1 до 10 км при отсутствии осадков обычно наблюдается дымка, при ухудшении видимости до 1 км и менее - туман. В сухую погоду видимость может ухудшаться дымом, пылью или мглою.
  • Явления - указаны атмосферные явления, наблюдавшиеся в срок или в последний час перед сроком; фигурными скобками обозначены явления, наблюдавшиеся между сроками (за 1-3 часа до срока); квадратными скобками обозначены град или гололедные отложения с указанием их диаметра в мм.
  • Облачность - указаны через наклонную черту общая и нижняя облачность в баллах и высота нижней границы облаков в метрах; квадратными скобками обозначены формы облаков: Ci - перистые, Cs - перисто-слоистые, Cc - перисто-кучевые, Ac - высококучевые, As - высокослоистые, Sc - слоисто-кучевые, Ns - слоисто-дождевые, Cu - кучевые, Cb - кучево-дождевые. Подробнее классификацию облаков см. в Атласе облаков (PDF).
  • T - Температура воздуха - температура, измеренная на высоте 2 м над землей.
  • Td - Температура точки росы - температура, при понижении до которой содержащийся в воздухе водяной пар достигнет насыщения.
  • f - Относительная влажность воздуха - влажноcть воздуха, измеренная на высоте 2 м над землей.
  • Te - Эффективная температура - температура, которую ощущает одетый по сезону человек в тени. Характеристика душности погоды. При расчете учитывается влияние влажности воздуха и скорости ветра на теплоощущения человека.
  • Tes - Эффективная температура на солнце - температура, которую ощущает человек, с поправкой на солнечный нагрев. Характеристика знойности погоды. Зависит от высоты солнца над горизонтом, облачности и скорости ветра. Ночью, в пасмурную погоду, а также при ветре 12 м/с и более поправка равна нулю.
  • P - Атмосферное давление - приведенное к уровню моря атмосферное давление.
  • Po - Атмосферное давление - измеренное на уровне метеостанции атмосферное давление.
  • Tmin - Минимальная температура - минимум температуры воздуха на высоте 2 м над землей.
  • Tmax - Максимальная температура - максимум температуры воздуха на высоте 2 м над землей.
  • R - Количество осадков - Количество выпавших осадков за период времени, мм. При наведении курсора мыши на число - период времени, за который выпало указанное количество осадков.
  • R24 - Количество осадков - Количество выпавших осадков за 24 часа, мм.
  • S - Снежный покров - Высота снежного покрова, см. При наведении курсора мыши на число - состояние снежного покрова и степень покрытия местности в баллах.